64498 station(s) have been heard in the last 24 hours.

<< 780 781 782 783 784 785 786 >>
  Name/Id Latest heard Comment/Other Map
Symbol DH7SW-R 1788260803 70cm MMDVM Voice (C4FM) 430.08750MHz +9.7550MHz, DH7SW_Pi-Star_RPT Map
Symbol OE8NDR 1788260803 `145.500MHz T077 OE8NDR.AT Fritz Map
Symbol WU7W B 1788260803 70cm Voice (D-Star) 439.20000MHz +0.0000MHz Map
Symbol BA8ATU-1 1788260803 Map
Symbol ER-IW6ATQ 1788260803 Map
Symbol W6PKT-15 1788260802 Map
Symbol GB7PB-C 1788260802 2m Voice 145.6625 -0.6 MHz Map
Symbol DL9HA-10 1788260802 LoRa GateRX Map
Symbol VK3PG B 1788260802 440 Voice 432.24000MHz +0.0000MHz Map
Symbol KR4LAI-2 1788260802 DigiPi::Lexington, SC Map
Symbol SDRVRD 1788260802 Satgate 145.825Mhz - WebSDR Volta Redonda - Visit http://websdr.dynv6.net:8901 HEIGHT=1378 GAIN=15 Map
Symbol AH6EZ-4 1788260802 MIARC Nordland WA Map
Symbol G4GUN-B 1788260802 70cm Voice (D-Star) 434.00000MHz +0.0000MHz Map
Symbol N5BDJ K 1788260802 2m Voice (D-Star) 145.23000MHz -0.6000MHz Map
Symbol SP1JOE B 1788260802 70cm Voice (D-Star) 438.50000MHz -7.6000MHz Map
Symbol DM1AD-10 1788260802 LORA-IGate DM1AD-10 Map
Symbol KD0JOU-A 1788260802 23cm/1.2GHz Voice (D-Star) 1283.30000MHz -12.0000MHz Map
Symbol WB2LMA B 1788260802 440 Voice 434.45000MHz +0.0000MHz Map
Symbol EA5IVP-D 1788260802 70cm MMDVM Voice (DMR) 435.00000MHz +0.0000MHz, APRS for DMRGateway Map
Symbol EA1JAV-10 1788260802 LoRa APRS Batt=0.00V Map
Symbol W4SVI-10 1788260802 145.030MHz Winlink Packet Gateway Map
Symbol IR3UDB-R 1788260802 70cm MMDVM Voice (C4FM) 431.26250MHz +1.6000MHz, Multi Protocol Node Map
Symbol PJ2A B 1788260802 440 Voice 438.82500MHz -7.6000MHz Map
Symbol KF0MRR-D 1788260802 70cm MMDVM Voice (DMR) 433.96000MHz +0.0000MHz, APRS for DMRGateway Map
Symbol IK3CSU B 1788260802 70cm Voice (D-Star) 435.30000MHz +0.0000MHz Map
Symbol W4AI-B 1788260802 70cm Voice (D-Star) 433.20000MHz -1.0000MHz, APRS for ircDDBGateway Map
Symbol IS0QLX-N 1788260802 70cm MMDVM Voice (C4FM) 432.00000MHz +0.0000MHz, IS0QLX_Pi-Star_ND Map
Symbol VK2COW-11 1788260801 Map
Symbol VK2COW-10 1788260801 Aprx v1.97 LoRa RX only iGate on 441.5 MHz, 125 kHz BW, SF 10 Map
Symbol LOWS 1788260801 https://livecam.salzburg-airport.com LOWS 011050Z AUTO 30009KT 260V340 9999 FEW050 24/11 Q1022 NOSIG Map
Symbol PY4RC-B 1788260801 70cm Voice (D-Star) 433.03000MHz +0.0000MHz Map
Symbol CE2RL B 1788260801 70cm Voice (D-Star) 438.90000MHz -8.8000MHz Map
Symbol TB3ALC-11 1788260801 RX Only LoRa iGate on 433.775MHz Temp: 38.03C, Humid:45.79% Map
Symbol TA2MJ-3 1788260801 Mert ABANUZ /Karamrsel Igate Station Map
Symbol CS7ATI B 1788260801 70cm Voice (D-Star) 433.80000MHz +0.0000MHz Map
Symbol EC5M-10 1788260801 Lora iGate Ibi 433.775 MHz Map
Symbol XE2ERA-2 1788260801 Meshcom XE2ERA#Meshcom XE2ERA/B=075 Map
Symbol KG4ZDF-N 1788260801 70cm MMDVM Voice (C4FM) 434.72500MHz +0.0000MHz, KG4ZDF_Pi-Star_ND Map
Symbol F1PIV-N 1788260801 70cm MMDVM Voice (C4FM) 431.07500MHz +0.0000MHz, F1PIV_Pi-Star_ND Map
Symbol OZ54BC-N 1788260801 70cm MMDVM Voice (C4FM) 432.50000MHz +0.0000MHz, OZ54BC_Pi-Star_ND Map
Symbol SP7WOJ-1 1788260801 LoRa Igate/Digi Polaniec Map
Symbol VK2COW-1 1788260801 Map
Symbol VE2ROW-1 1788260801 13.9Vdc, VE2RAX OK, VE2ROW OK, VA2MD OK, Tin +32C, 004 LUX Map
Symbol G0HFH-B 1788260801 70cm Voice (D-Star) 438.80000MHz +0.0000MHz Map
Symbol SP5SO-2 1788260801 Map
Symbol 53.825 1788260801 -100 VK2RBE WARC repeater Map
Symbol IQ0OG 1788260801 E.R.A.Nuoro-Ogliastra O.d.V. {UIV32N} Map
Symbol K4BWM-B 1788260801 70cm Voice (D-Star) 439.20000MHz +0.0000MHz Map
Symbol F5ZPL-R 1788260801 70cm MMDVM Voice (C4FM) 430.55000MHz +9.4000MHz, F5ZPL_Pi-Star_RPT Map
Symbol W4SNA-10 1788260800 145.030MHz Winlink VARA FM Gateway Map